FW1892 Weather Reports


time (UTC)temp
C
wind
direction
speed
KPH
gust
KPH
rain 1hr
cm
rain 24hr
cm
rain mn
cm
humidity
%
barometer
mb
20260507051126 10 307 6.4 11.3 0.00 0.00 0.00 87 1005.7
20260507050623 10 295 4.8 9.7 0.00 0.00 0.00 87 1005.9
20260507050120 10 298 3.2 4.8 0.00 0.00 0.00 87 1005.4
20260507045617 10 240 3.2 4.8 0.00 0.00 0.00 87 1005.2
20260507045114 10 199 6.4 11.3 0.00 0.00 0.00 86 1005.3
20260507044610 10 319 4.8 6.4 0.00 0.00 0.00 87 1005.3
20260507044108 10 252 4.8 6.4 0.00 0.00 0.00 88 1005.6
20260507043603 10 109 0.0 3.2 0.00 0.00 0.00 88 1005.4
20260507043100 10 269 9.7 12.9 0.00 0.00 0.00 88 1005.7
20260507042556 10 70 1.6 4.8 0.00 0.00 0.00 89 1005.9
20260507042052 10 312 3.2 11.3 0.00 0.00 0.00 90 1006.0
20260507041549 10 107 1.6 3.2 0.00 0.00 0.00 90 1005.7
20260507041046 10 141 0.0 1.6 0.00 0.00 0.00 90 1005.6
20260507040542 10 271 4.8 6.4 0.00 0.00 0.00 90 1005.3
20260507040039 10 266 4.8 6.4 0.00 0.51 0.51 90 1005.5
20260507035535 11 76 1.6 4.8 0.00 0.51 0.51 90 1005.4
20260507035031 11 242 4.8 6.4 0.00 0.51 0.51 90 1005.4
20260507034528 11 117 0.0 3.2 0.00 0.51 0.51 90 1005.5
20260507034026 11 69 1.6 6.4 0.00 0.51 0.51 91 1005.2
20260507033524 11 282 4.8 6.4 0.00 0.51 0.51 91 1005.2
20260507033021 11 330 4.8 9.7 0.00 0.51 0.51 92 1005.3
20260507032518 11 323 6.4 9.7 0.00 0.51 0.51 92 1005.2
20260507032014 11 38 1.6 3.2 0.00 0.51 0.51 92 1005.2
20260507031510 12 126 1.6 4.8 0.00 0.51 0.51 92 1005.1
20260507031008 12 307 3.2 6.4 0.13 0.51 0.51 91 1004.8
20260507030504 12 273 6.4 11.3 0.13 0.51 0.51 91 1004.7
20260507030002 13 274 14.5 16.1 0.18 0.48 0.48 91 1005.0
20260507025458 13 45 1.6 6.4 0.00 0.46 0.46 91 1004.9
20260507024956 13 324 4.8 4.8 0.00 0.46 0.46 92 1005.1
20260507024453 13 304 9.7 14.5 0.00 0.46 0.46 92 1005.1
20260507023949 13 75 1.6 6.4 0.13 0.46 0.46 93 1004.7
20260507023446 13 302 8.0 11.3 0.13 0.46 0.46 93 1004.6
20260507022943 14 10 3.2 6.4 0.00 0.43 0.43 94 1004.5
20260507022441 14 295 4.8 6.4 0.00 0.43 0.43 94 1004.4
20260507021936 15 66 1.6 3.2 0.00 0.43 0.43 94 1004.1
20260507021431 15 302 3.2 4.8 0.00 0.43 0.43 95 1003.9
20260507020929 15 337 3.2 4.8 0.00 0.43 0.43 95 1004.0
20260507020426 15 260 3.2 6.4 0.00 0.43 0.43 95 1004.0
20260507015923 15 145 3.2 6.4 0.00 0.43 0.43 94 1003.7
20260507015421 15 112 0.0 3.2 0.00 0.43 0.43 94 1003.9
20260507014918 15 155 0.0 1.6 0.00 0.43 0.43 94 1003.7
20260507014414 15 164 1.6 4.8 0.00 0.43 0.43 94 1003.6
20260507013910 15 199 1.6 4.8 0.00 0.43 0.43 94 1003.7
20260507013408 15 43 3.2 4.8 0.00 0.43 0.43 94 1003.8
20260507012905 15 99 3.2 4.8 0.00 0.43 0.43 94 1003.6
20260507012401 15 207 0.0 3.2 0.00 0.43 0.43 94 1003.9
20260507011859 15 213 1.6 4.8 0.00 0.43 0.43 94 1003.6
20260507011355 15 164 0.0 1.6 0.00 0.43 0.43 94 1003.8
20260507010855 15 186 1.6 4.8 0.00 0.43 0.43 94 1003.6
20260507010351 15 172 0.0 1.6 0.00 0.43 0.43 94 1003.8
20260507005848 15 134 0.0 3.2 0.00 0.43 0.43 94 1003.7
20260507005345 15 188 1.6 3.2 0.00 0.43 0.43 94 1003.8
20260507004842 15 194 4.8 6.4 0.00 0.43 0.43 94 1003.7
20260507004339 15 116 1.6 3.2 0.00 0.43 0.43 94 1003.7
20260507003836 15 141 0.0 1.6 0.00 0.43 0.43 94 1003.5
20260507003331 15 77 3.2 4.8 0.00 0.43 0.43 94 1003.5
20260507002826 15 124 0.0 1.6 0.00 0.43 0.43 94 1003.6
20260507002323 15 181 1.6 4.8 0.00 0.43 0.43 94 1003.6
20260507001820 15 225 1.6 4.8 0.00 0.43 0.43 94 1003.5
20260507001317 15 120 0.0 3.2 0.00 0.43 0.43 94 1003.5
20260507000813 15 59 1.6 1.6 0.00 0.43 0.43 94 1003.3
20260507000309 15 153 6.4 9.7 0.00 0.43 0.43 94 1003.2
20260506235806 15 210 6.4 11.3 0.00 0.43 0.43 94 1003.2
20260506235306 15 129 0.0 9.7 0.00 0.43 0.43 94 1002.9
20260506234759 15 144 1.6 9.7 0.00 0.43 0.43 94 1003.2
20260506234256 15 170 4.8 4.8 0.00 0.43 0.43 94 1003.3
20260506233754 15 218 4.8 6.4 0.00 0.43 0.43 94 1003.2
20260506233250 15 187 1.6 9.7 0.00 0.43 0.43 94 1003.2
20260506232747 15 162 4.8 6.4 0.00 0.43 0.43 94 1003.3
20260506232241 15 203 6.4 11.3 0.00 0.43 0.43 93 1003.4
20260506231739 15 234 9.7 12.9 0.00 0.43 0.43 93 1003.4
20260506231238 15 143 1.6 4.8 0.00 0.43 0.43 93 1003.3
20260506230734 15 173 0.0 6.4 0.00 0.43 0.43 93 1003.3
20260506230231 15 133 1.6 3.2 0.00 0.43 0.43 93 1003.4
20260506225727 15 157 1.6 4.8 0.00 0.43 0.43 93 1003.5
20260506225225 15 218 3.2 4.8 0.00 0.43 0.43 93 1003.7
20260506224721 15 166 1.6 6.4 0.00 0.43 0.43 93 1003.5
20260506224218 15 173 1.6 9.7 0.00 0.43 0.43 93 1003.4
20260506223714 15 142 0.0 6.4 0.00 0.43 0.43 93 1003.7
20260506223210 15 169 1.6 9.7 0.00 0.43 0.43 93 1003.5
20260506222707 15 217 1.6 4.8 0.00 0.43 0.43 93 1003.5
20260506222202 15 170 6.4 11.3 0.00 0.43 0.43 93 1003.6
20260506221701 15 48 3.2 9.7 0.00 0.43 0.43 93 1003.6
20260506221159 15 116 3.2 6.4 0.00 0.43 0.43 93 1003.7
20260506220655 15 115 1.6 11.3 0.00 0.43 0.43 93 1003.9
20260506220150 15 188 4.8 6.4 0.00 0.43 0.43 94 1003.8
20260506215647 15 118 3.2 9.7 0.18 0.43 0.43 93 1003.8
20260506215142 15 176 4.8 6.4 0.18 0.43 0.43 93 1003.7
20260506214639 15 115 1.6 6.4 0.00 0.41 0.41 93 1003.9
20260506214137 15 150 3.2 4.8 0.00 0.41 0.41 93 1003.9
20260506213635 15 125 6.4 14.5 0.00 0.41 0.41 93 1003.8
20260506213132 15 202 9.7 11.3 0.00 0.41 0.41 93 1003.9
20260506212629 15 94 3.2 4.8 0.00 0.41 0.41 93 1003.9
20260506212124 15 194 3.2 9.7 0.13 0.41 0.41 92 1003.8
20260506211620 15 82 3.2 11.3 0.13 0.41 0.41 92 1003.9
20260506211117 15 156 3.2 6.4 0.18 0.38 0.38 92 1004.1
20260506210614 16 209 3.2 16.1 0.18 0.38 0.38 92 1004.0
20260506210110 16 202 8.0 16.1 0.00 0.36 0.36 92 1004.2
20260506205607 16 65 1.6 4.8 0.00 0.36 0.36 92 1004.1
20260506205102 16 170 8.0 11.3 0.00 0.36 0.36 92 1004.2
20260506204600 16 176 3.2 9.7 0.00 0.36 0.36 92 1004.1
20260506204057 16 216 1.6 12.9 0.13 0.36 0.36 91 1004.4
20260506203555 16 129 0.0 6.4 0.13 0.36 0.36 91 1004.3
20260506203051 16 93 4.8 9.7 0.00 0.33 0.33 91 1004.2
20260506202549 16 198 6.4 9.7 0.00 0.33 0.33 91 1004.3
20260506202045 16 130 3.2 3.2 0.00 0.33 0.33 92 1004.3
20260506201543 16 187 3.2 6.4 0.00 0.33 0.33 91 1004.2
20260506201040 16 214 3.2 6.4 0.00 0.33 0.33 91 1004.4
20260506200536 16 152 3.2 4.8 0.18 0.33 0.33 91 1004.3
20260506200033 16 121 1.6 4.8 0.30 0.33 0.33 90 1004.5
20260506195529 16 146 0.0 3.2 0.13 0.30 0.30 90 1004.5
20260506195026 16 178 0.0 1.6 0.00 0.28 0.28 89 1004.7
20260506194524 16 259 1.6 4.8 0.00 0.28 0.28 89 1004.6
20260506194020 16 223 6.4 11.3 0.00 0.28 0.28 89 1004.6
20260506193517 16 143 1.6 4.8 0.00 0.28 0.28 89 1004.6
20260506193014 16 144 0.0 4.8 0.00 0.28 0.28 90 1004.4
20260506192511 16 199 4.8 6.4 0.00 0.28 0.28 90 1004.4
20260506192007 16 178 0.0 1.6 0.00 0.28 0.28 91 1004.4
20260506191504 16 105 0.0 3.2 0.00 0.28 0.28 91 1004.2
20260506191000 16 170 0.0 1.6 0.00 0.28 0.28 90 1004.2
20260506190457 16 84 0.0 1.6 0.00 0.28 0.28 90 1004.6
20260506185954 16 139 0.0 1.6 0.18 0.28 0.28 89 1004.5
20260506185451 16 112 0.0 0.0 0.18 0.28 0.28 89 1004.5
20260506184948 16 106 0.0 1.6 0.18 0.25 0.25 89 1004.7
20260506184445 16 165 0.0 6.4 0.18 0.25 0.25 88 1004.7
20260506183942 16 95 0.0 0.0 0.13 0.23 0.23 88 1005.0
20260506183437 17 172 3.2 4.8 0.18 0.20 0.20 87 1005.1
20260506182935 17 128 1.6 3.2 0.30 0.20 0.20 87 1005.1
20260506182432 17 148 0.0 1.6 0.13 0.18 0.18 86 1005.1
20260506181929 17 125 0.0 0.0 0.18 0.15 0.15 86 1005.4
20260506181427 17 159 0.0 1.6 0.30 0.15 0.15 84 1005.4
20260506180924 17 117 1.6 3.2 0.30 0.13 0.13 83 1005.4
20260506180420 17 295 1.6 3.2 0.30 0.10 0.10 81 1005.4
20260506175917 17 130 1.6 1.6 0.30 0.08 0.08 79 1005.5
20260506175414 18 302 1.6 3.2 0.18 0.05 0.05 76 1005.6
20260506174910 18 148 1.6 6.4 0.13 0.03 0.03 74 1005.7
20260506174408 20 262 3.2 12.9 0.00 0.00 0.00 69 1005.7
20260506173905 20 125 1.6 9.7 0.00 0.00 0.00 66 1005.5
20260506173402 20 138 3.2 22.5 0.00 0.00 0.00 62 1005.2
20260506172859 21 6 3.2 9.7 0.00 0.00 0.00 61 1005.3
20260506172355 21 260 3.2 9.7 0.00 0.00 0.00 61 1005.1
20260506171853 21 93 4.8 6.4 0.00 0.00 0.00 59 1005.0
20260506171350 21 78 1.6 12.9 0.00 0.00 0.00 58 1005.0
20260506170847 21 76 1.6 6.4 0.00 0.00 0.00 59 1005.1
20260506170343 21 89 3.2 6.4 0.00 0.00 0.00 59 1004.9
20260506165837 21 207 3.2 4.8 0.00 0.00 0.00 61 1005.1
20260506165334 21 155 1.6 4.8 0.00 0.00 0.00 61 1005.3
20260506164830 21 237 9.7 12.9 0.00 0.00 0.00 60 1005.2
20260506164327 21 202 11.3 16.1 0.00 0.00 0.00 59 1005.4
20260506163825 21 160 1.6 4.8 0.00 0.00 0.00 60 1005.3
20260506163319 21 182 9.7 14.5 0.00 0.00 0.00 60 1005.4
20260506162815 21 134 1.6 12.9 0.00 0.00 0.00 60 1005.4
20260506162313 21 118 0.0 3.2 0.00 0.00 0.00 61 1005.5
20260506161805 21 209 3.2 6.4 0.00 0.00 0.00 61 1005.5
20260506161302 21 166 4.8 12.9 0.00 0.00 0.00 60 1005.6
20260506160759 21 186 1.6 11.3 0.00 0.00 0.00 62 1006.0
20260506160256 21 89 3.2 14.5 0.00 0.00 0.00 61 1006.1
20260506155755 21 121 9.7 14.5 0.00 0.00 0.00 62 1006.3
20260506155251 20 121 6.4 11.3 0.00 0.00 0.00 62 1006.5
20260506153358 20 92 0.0 6.4 0.00 0.00 0.00 64 1006.7
20260506152855 20 160 1.6 12.9 0.00 0.00 0.00 64 1006.8
20260506152352 20 48 3.2 9.7 0.00 0.00 0.00 64 1006.9
20260506151850 20 120 1.6 12.9 0.00 0.00 0.00 65 1006.9
20260506151347 20 207 4.8 11.3 0.00 0.00 0.00 64 1007.0
20260506150844 20 237 4.8 9.7 0.00 0.00 0.00 65 1007.1
20260506150341 20 189 1.6 14.5 0.00 0.00 0.00 65 1007.0
20260506145837 20 135 3.2 4.8 0.00 0.00 0.00 66 1006.9
20260506145334 20 200 4.8 4.8 0.00 0.00 0.00 66 1006.7
20260506144832 20 205 3.2 4.8 0.00 0.00 0.00 67 1007.0
20260506144328 20 181 8.0 14.5 0.00 0.00 0.00 67 1007.0
20260506143826 20 136 3.2 9.7 0.00 0.00 0.00 66 1006.9
20260506143323 20 162 3.2 9.7 0.00 0.00 0.00 66 1006.9
20260506142821 20 161 3.2 9.7 0.00 0.00 0.00 67 1006.8
20260506142319 19 125 1.6 4.8 0.00 0.00 0.00 68 1006.7
20260506141817 19 197 3.2 11.3 0.00 0.00 0.00 68 1006.8
20260506141315 19 125 4.8 11.3 0.00 0.00 0.00 68 1006.8
20260506140813 19 153 6.4 12.9 0.00 0.00 0.00 68 1006.7
20260506140309 19 140 1.6 4.8 0.00 0.00 0.00 68 1006.7
20260506135806 19 158 3.2 9.7 0.00 0.00 0.00 68 1006.6
20260506135305 18 144 1.6 11.3 0.00 0.00 0.00 69 1006.6
20260506134759 18 98 3.2 9.7 0.00 0.00 0.00 70 1006.8
20260506134255 18 225 4.8 6.4 0.00 0.00 0.00 71 1006.8
20260506133753 18 117 3.2 16.1 0.00 0.00 0.00 71 1007.2
20260506133249 18 208 6.4 12.9 0.00 0.00 0.00 71 1007.1
20260506132746 18 100 3.2 6.4 0.00 0.00 0.00 71 1006.9
20260506132244 18 227 8.0 9.7 0.00 0.00 0.00 71 1007.3
20260506131741 18 126 3.2 9.7 0.00 0.00 0.00 72 1007.0
20260506131237 17 196 3.2 6.4 0.00 0.00 0.00 72 1007.0
20260506130734 17 146 1.6 4.8 0.00 0.00 0.00 72 1007.1
20260506130231 17 97 1.6 6.4 0.00 0.00 0.00 72 1007.1
20260506125729 17 144 1.6 12.9 0.00 0.00 0.00 73 1007.1
20260506125227 17 175 6.4 9.7 0.00 0.00 0.00 72 1007.2
20260506124725 17 289 3.2 9.7 0.00 0.00 0.00 72 1007.1
20260506124222 17 176 4.8 6.4 0.00 0.00 0.00 72 1007.2
20260506123719 17 152 4.8 6.4 0.00 0.00 0.00 73 1007.3
20260506123218 17 212 3.2 12.9 0.00 0.00 0.00 73 1007.1
20260506122715 17 121 1.6 3.2 0.00 0.00 0.00 74 1007.2
20260506122212 17 202 3.2 6.4 0.00 0.00 0.00 74 1007.1
20260506121710 17 191 6.4 9.7 0.00 0.00 0.00 74 1007.1
20260506121206 17 155 3.2 4.8 0.00 0.00 0.00 74 1007.3
20260506120704 17 201 3.2 12.9 0.00 0.00 0.00 74 1007.5
20260506120201 17 199 1.6 9.7 0.00 0.00 0.00 74 1007.5
20260506115659 17 212 8.0 9.7 0.00 0.00 0.00 74 1007.5
20260506115157 16 132 1.6 3.2 0.00 0.00 0.00 75 1007.4
20260506114654 16 145 6.4 9.7 0.00 0.00 0.00 75 1007.7
20260506114152 16 53 1.6 16.1 0.00 0.00 0.00 76 1007.8
20260506113650 16 182 6.4 9.7 0.00 0.00 0.00 75 1007.8
20260506113147 16 144 1.6 4.8 0.00 0.00 0.00 75 1007.7
20260506112643 16 150 6.4 9.7 0.00 0.00 0.00 75 1007.7
20260506112141 16 157 0.0 1.6 0.00 0.00 0.00 76 1007.9
20260506111639 16 125 3.2 9.7 0.00 0.00 0.00 75 1007.8
20260506111136 16 138 0.0 1.6 0.00 0.00 0.00 75 1007.8
20260506110633 16 164 6.4 6.4 0.00 0.00 0.00 76 1007.9
20260506110131 16 142 3.2 6.4 0.00 0.00 0.00 76 1007.7
20260506105627 16 158 1.6 3.2 0.00 0.00 0.00 77 1007.8
20260506105124 15 191 9.7 12.9 0.00 0.00 0.00 77 1007.7
20260506104622 15 153 1.6 3.2 0.00 0.00 0.00 77 1008.0
20260506104119 15 205 3.2 4.8 0.00 0.00 0.00 77 1007.8
20260506103617 15 154 0.0 4.8 0.00 0.00 0.00 77 1007.8
20260506103113 15 88 1.6 6.4 0.00 0.00 0.00 77 1007.7
20260506102612 15 126 0.0 4.8 0.00 0.00 0.00 77 1007.4
20260506102109 15 181 1.6 4.8 0.00 0.00 0.00 77 1007.6
20260506101605 15 153 0.0 3.2 0.00 0.00 0.00 77 1007.6
20260506101102 15 110 1.6 4.8 0.00 0.00 0.00 76 1007.5
20260506100601 15 127 1.6 3.2 0.00 0.00 0.00 77 1007.7
20260506100058 15 123 3.2 6.4 0.00 0.00 0.00 77 1007.6
20260506095557 15 106 1.6 6.4 0.00 0.00 0.00 77 1007.8
20260506095053 15 142 1.6 1.6 0.00 0.00 0.00 76 1007.9
20260506094551 15 121 0.0 4.8 0.00 0.00 0.00 76 1007.7
20260506094048 15 203 4.8 6.4 0.00 0.00 0.00 76 1007.7
20260506093547 15 108 3.2 4.8 0.00 0.00 0.00 76 1007.5
20260506093044 15 107 0.0 3.2 0.00 0.00 0.00 76 1007.6
20260506092541 15 160 3.2 6.4 0.00 0.00 0.00 76 1007.4
20260506092038 15 124 1.6 12.9 0.00 0.00 0.00 76 1007.6
20260506091536 15 121 1.6 3.2 0.00 0.00 0.00 76 1007.8
20260506091033 15 198 1.6 3.2 0.00 0.00 0.00 76 1007.5
20260506090531 15 147 1.6 3.2 0.00 0.00 0.00 75 1007.7
20260506090027 15 97 1.6 1.6 0.00 0.00 0.00 75 1007.6
20260506085524 15 125 0.0 3.2 0.00 0.00 0.00 75 1007.5
20260506085021 15 127 0.0 3.2 0.00 0.00 0.00 75 1007.5
20260506084518 15 120 0.0 9.7 0.00 0.00 0.00 75 1007.8
20260506084013 15 126 0.0 3.2 0.00 0.00 0.00 75 1007.7
20260506083511 15 148 0.0 0.0 0.00 0.00 0.00 75 1007.7
20260506083008 15 123 0.0 3.2 0.00 0.00 0.00 75 1007.4
20260506082505 15 132 0.0 1.6 0.00 0.00 0.00 76 1007.4
20260506082000 15 124 0.0 0.0 0.00 0.00 0.00 75 1007.7
20260506081459 15 171 0.0 0.0 0.00 0.00 0.00 75 1007.6
20260506080956 15 129 0.0 0.0 0.00 0.00 0.00 75 1007.6
20260506080453 14 102 0.0 1.6 0.00 0.00 0.00 75 1007.6
20260506073437 15 147 0.0 0.0 0.00 0.00 0.00 71 1007.7
20260506072934 15 137 0.0 0.0 0.00 0.00 0.00 70 1007.6
20260506072431 15 115 0.0 0.0 0.00 0.00 0.00 70 1007.6
20260506071929 15 107 0.0 1.6 0.00 0.00 0.00 70 1007.6
20260506071427 15 130 0.0 0.0 0.00 0.00 0.00 70 1007.4
20260506070924 16 92 1.6 1.6 0.00 0.00 0.00 68 1007.3
20260506070420 16 140 1.6 1.6 0.00 0.00 0.00 68 1007.3
20260506062358 16 102 1.6 1.6 0.00 0.00 0.00 66 1007.2
20260506061854 16 150 1.6 1.6 0.00 0.00 0.00 67 1007.1
20260506061351 16 110 1.6 3.2 0.00 0.00 0.00 67 1007.0
20260506060848 16 116 0.0 1.6 0.00 0.00 0.00 66 1007.2
20260506060346 16 125 0.0 0.0 0.00 0.00 0.00 66 1007.2
20260506051318 16 107 0.0 4.8 0.00 0.00 0.00 64 1007.3